• In Portugal
  • List of Countries
  • For 7 days
  • Water Temperature
  • Satellite Maps
  • Weather Map
  • Weather Widgets
  • user-avatar
    Login

    Hourly Weather Lisbon

    Today, 22 October, Monday

    Time Temperature Precipitation Wind Pressure Humidity
    00:00 +17°C° 0 mm 2 mps 760 mmHg 85%
    01:00 +17°C° 0 mm 2 mps 760 mmHg 86%
    02:00 +16°C° 0 mm 2 mps 760 mmHg 87%
    03:00 +16°C° 0 mm 2 mps 760 mmHg 88%
    04:00 +16°C° 0 mm 2 mps 760 mmHg 89%
    05:00 +16°C° 0 mm 3 mps 760 mmHg 89%
    06:00 +17°C° 0 mm 3 mps 761 mmHg 83%
    07:00 +18°C° 0 mm 3 mps 761 mmHg 76%
    08:00 +20°C° 0 mm 3 mps 761 mmHg 70%
    09:00 +22°C° 0 mm 3 mps 761 mmHg 61%
    10:00 +25°C° 0 mm 2 mps 761 mmHg 53%
    11:00 +27°C° 0 mm 2 mps 761 mmHg 45%
    12:00 +28°C° 0 mm 2 mps 761 mmHg 42%
    13:00 +28°C° 0 mm 2 mps 761 mmHg 40%
    14:00 +29°C° 0 mm 2 mps 760 mmHg 38%
    15:00 +27°C° 0 mm 2 mps 760 mmHg 42%
    16:00 +26°C° 0 mm 3 mps 760 mmHg 47%
    17:00 +24°C° 0 mm 3 mps 760 mmHg 52%
    18:00 +22°C° 0 mm 3 mps 761 mmHg 55%
    19:00 +21°C° 0 mm 3 mps 761 mmHg 59%
    20:00 +20°C° 0 mm 3 mps 761 mmHg 63%
    21:00 +20°C° 0 mm 2 mps 761 mmHg 62%
    22:00 +20°C° 0 mm 2 mps 761 mmHg 62%
    23:00 +20°C° 0 mm 2 mps 761 mmHg 62%

    Tomorrow, 23 October, Tuesday

    Time Temperature Precipitation Wind Pressure Humidity
    00:00 +19°C° 0 mm 2 mps 761 mmHg 62%
    01:00 +20°C° 0 mm 1 mps 761 mmHg 63%
    02:00 +20°C° 0 mm 1 mps 761 mmHg 63%
    03:00 +19°C° 0 mm 2 mps 761 mmHg 64%
    04:00 +18°C° 0 mm 2 mps 761 mmHg 64%
    05:00 +18°C° 0 mm 2 mps 761 mmHg 65%
    06:00 +19°C° 0 mm 3 mps 762 mmHg 61%
    07:00 +20°C° 0 mm 3 mps 762 mmHg 58%
    08:00 +22°C° 0 mm 3 mps 763 mmHg 55%
    09:00 +24°C° 0 mm 3 mps 763 mmHg 52%
    10:00 +26°C° 0 mm 3 mps 763 mmHg 49%
    11:00 +27°C° 0 mm 2 mps 763 mmHg 46%
    12:00 +28°C° 0 mm 2 mps 762 mmHg 45%
    13:00 +28°C° 0 mm 2 mps 762 mmHg 45%
    14:00 +28°C° 0 mm 2 mps 762 mmHg 44%
    15:00 +27°C° 0.1 mm 1 mps 762 mmHg 48%
    16:00 +25°C° 0.1 mm 1 mps 762 mmHg 52%
    17:00 +24°C° 0.1 mm 1 mps 762 mmHg 56%
    18:00 +23°C° 0.2 mm 1 mps 762 mmHg 60%
    19:00 +22°C° 0.2 mm 1 mps 763 mmHg 63%
    20:00 +21°C° 0.2 mm 1 mps 763 mmHg 67%
    21:00 +21°C° 0 mm 1 mps 763 mmHg 68%
    22:00 +21°C° 0 mm 1 mps 763 mmHg 68%
    23:00 +20°C° 0 mm 1 mps 763 mmHg 69%

    Day after tomorrow, 24 October, Wednesday

    Time Temperature Precipitation Wind Pressure Humidity
    00:00 +20°C° 0.1 mm 1 mps 763 mmHg 70%
    01:00 +20°C° 0.1 mm 1 mps 763 mmHg 71%
    02:00 +20°C° 0.1 mm 1 mps 763 mmHg 72%
    03:00 +19°C° 0 mm 1 mps 763 mmHg 73%
    04:00 +19°C° 0 mm 1 mps 763 mmHg 74%
    05:00 +18°C° 0 mm 2 mps 763 mmHg 75%
    06:00 +19°C° 0 mm 2 mps 763 mmHg 70%
    07:00 +20°C° 0 mm 2 mps 763 mmHg 64%
    08:00 +23°C° 0 mm 2 mps 763 mmHg 59%
    09:00 +25°C° 0 mm 1 mps 763 mmHg 52%
    10:00 +26°C° 0 mm 1 mps 763 mmHg 46%
    11:00 +28°C° 0 mm 1 mps 763 mmHg 39%
    12:00 +29°C° 0 mm 1 mps 762 mmHg 38%
    13:00 +29°C° 0 mm 2 mps 762 mmHg 36%
    14:00 +29°C° 0 mm 2 mps 761 mmHg 35%
    15:00 +28°C° 0 mm 3 mps 761 mmHg 39%
    16:00 +26°C° 0 mm 3 mps 761 mmHg 44%
    17:00 +24°C° 0 mm 3 mps 761 mmHg 48%
    18:00 +24°C° 0 mm 3 mps 761 mmHg 50%
    19:00 +22°C° 0 mm 3 mps 761 mmHg 52%
    20:00 +21°C° 0 mm 3 mps 761 mmHg 55%
    21:00 +21°C° 0 mm 3 mps 761 mmHg 55%
    22:00 +20°C° 0 mm 3 mps 761 mmHg 56%
    23:00 +20°C° 0 mm 3 mps 760 mmHg 56%

    25 October, Thursday

    Time Temperature Precipitation Wind Pressure Humidity
    00:00 +19°C° 0 mm 3 mps 760 mmHg 57%
    01:00 +19°C° 0 mm 2 mps 760 mmHg 58%
    02:00 +19°C° 0 mm 2 mps 759 mmHg 59%
    03:00 +18°C° 0 mm 2 mps 759 mmHg 60%
    04:00 +18°C° 0 mm 2 mps 759 mmHg 61%
    05:00 +18°C° 0 mm 2 mps 759 mmHg 62%
    06:00 +19°C° 0 mm 2 mps 759 mmHg 57%
    07:00 +20°C° 0 mm 2 mps 759 mmHg 53%
    08:00 +23°C° 0 mm 2 mps 759 mmHg 48%
    09:00 +25°C° 0 mm 2 mps 759 mmHg 44%
    10:00 +27°C° 0 mm 1 mps 759 mmHg 39%
    11:00 +29°C° 0 mm 1 mps 759 mmHg 34%
    12:00 +29°C° 0 mm 1 mps 758 mmHg 34%
    13:00 +29°C° 0 mm 2 mps 758 mmHg 33%
    14:00 +29°C° 0 mm 3 mps 757 mmHg 33%
    15:00 +27°C° 0 mm 3 mps 757 mmHg 37%
    16:00 +25°C° 0 mm 3 mps 757 mmHg 41%
    17:00 +24°C° 0 mm 3 mps 757 mmHg 44%
    18:00 +22°C° 0 mm 3 mps 757 mmHg 45%
    19:00 +21°C° 0 mm 3 mps 757 mmHg 46%
    20:00 +20°C° 0 mm 3 mps 757 mmHg 47%
    21:00 +19°C° 0 mm 3 mps 757 mmHg 47%
    22:00 +19°C° 0 mm 3 mps 757 mmHg 47%
    23:00 +18°C° 0 mm 3 mps 757 mmHg 47%

    26 October, Friday

    Time Temperature Precipitation Wind Pressure Humidity
    00:00 +18°C° 0 mm 3 mps 757 mmHg 49%
    01:00 +18°C° 0 mm 2 mps 756 mmHg 50%
    02:00 +17°C° 0 mm 2 mps 756 mmHg 52%
    03:00 +17°C° 0 mm 2 mps 756 mmHg 54%
    04:00 +16°C° 0 mm 2 mps 756 mmHg 57%
    05:00 +16°C° 0 mm 2 mps 756 mmHg 59%
    06:00 +17°C° 0 mm 2 mps 756 mmHg 57%
    07:00 +18°C° 0 mm 2 mps 756 mmHg 55%
    08:00 +20°C° 0 mm 3 mps 757 mmHg 53%
    09:00 +21°C° 0 mm 3 mps 757 mmHg 49%
    10:00 +24°C° 0 mm 3 mps 757 mmHg 45%
    11:00 +26°C° 0 mm 3 mps 757 mmHg 41%
    12:00 +26°C° 0 mm 4 mps 756 mmHg 42%
    13:00 +26°C° 0 mm 4 mps 756 mmHg 42%
    14:00 +26°C° 0 mm 5 mps 755 mmHg 43%
    15:00 +23°C° 0 mm 5 mps 755 mmHg 51%
    16:00 +21°C° 0 mm 5 mps 755 mmHg 58%
    17:00 +20°C° 0 mm 5 mps 756 mmHg 65%
    18:00 +19°C° 0 mm 6 mps 756 mmHg 69%
    19:00 +17°C° 0 mm 7 mps 756 mmHg 72%
    20:00 +16°C° 0 mm 7 mps 757 mmHg 76%
    21:00 +16°C° 0 mm 8 mps 757 mmHg 73%
    22:00 +16°C° 0 mm 9 mps 757 mmHg 70%
    23:00 +16°C° 0 mm 10 mps 757 mmHg 68%

    27 October, Saturday

    Time Temperature Precipitation Wind Pressure Humidity
    00:00 +14°C° 0 mm 10 mps 757 mmHg 65%
    01:00 +14°C° 0 mm 10 mps 757 mmHg 62%
    02:00 +13°C° 0 mm 10 mps 757 mmHg 58%
    03:00 +13°C° 0 mm 10 mps 758 mmHg 58%
    04:00 +13°C° 0 mm 10 mps 758 mmHg 58%
    05:00 +12°C° 0 mm 9 mps 758 mmHg 58%
    06:00 +13°C° 0 mm 10 mps 759 mmHg 54%
    07:00 +13°C° 0 mm 10 mps 759 mmHg 49%
    08:00 +14°C° 0 mm 11 mps 760 mmHg 45%
    09:00 +16°C° 0 mm 11 mps 760 mmHg 40%
    10:00 +17°C° 0 mm 11 mps 760 mmHg 35%
    11:00 +19°C° 0 mm 11 mps 760 mmHg 30%
    12:00 +19°C° 0 mm 11 mps 759 mmHg 32%
    13:00 +18°C° 0 mm 11 mps 759 mmHg 34%
    14:00 +18°C° 0 mm 12 mps 759 mmHg 36%
    15:00 +17°C° 0 mm 11 mps 759 mmHg 42%
    16:00 +14°C° 0 mm 11 mps 759 mmHg 48%
    17:00 +13°C° 0 mm 11 mps 759 mmHg 53%
    18:00 +12°C° 0 mm 11 mps 759 mmHg 51%
    19:00 +12°C° 0 mm 11 mps 760 mmHg 50%
    20:00 +12°C° 0 mm 11 mps 760 mmHg 48%
    21:00 +11°C° 0 mm 10 mps 760 mmHg 47%
    22:00 +11°C° 0 mm 9 mps 760 mmHg 46%
    23:00 +10°C° 0 mm 9 mps 759 mmHg 44%

    28 October, Sunday

    Time Temperature Precipitation Wind Pressure Humidity
    00:00 +10°C° 0.1 mm 8 mps 759 mmHg 49%
    01:00 +10°C° 0.1 mm 8 mps 759 mmHg 54%
    02:00 +10°C° 0.1 mm 8 mps 758 mmHg 59%
    03:00 +10°C° 0.3 mm 8 mps 758 mmHg 61%
    04:00 +10°C° 0.3 mm 7 mps 758 mmHg 64%
    05:00 +9°C° 0.3 mm 7 mps 758 mmHg 67%
    06:00 +10°C° 0.3 mm 8 mps 758 mmHg 61%
    07:00 +10°C° 0.3 mm 8 mps 758 mmHg 55%
    08:00 +11°C° 0.3 mm 8 mps 758 mmHg 50%
    09:00 +12°C° 0 mm 9 mps 758 mmHg 43%
    10:00 +13°C° 0 mm 9 mps 758 mmHg 37%
    11:00 +14°C° 0 mm 10 mps 758 mmHg 31%
    12:00 +14°C° 0 mm 10 mps 757 mmHg 30%
    13:00 +14°C° 0 mm 10 mps 757 mmHg 29%
    14:00 +16°C° 0 mm 10 mps 757 mmHg 29%
    15:00 +15°C° 0 mm 9 mps 757 mmHg 33%
    16:00 +12°C° 0 mm 9 mps 757 mmHg 37%
    17:00 +11°C° 0 mm 8 mps 757 mmHg 42%
    18:00 +11°C° 0 mm 8 mps 758 mmHg 45%
    19:00 +11°C° 0 mm 8 mps 758 mmHg 49%
    20:00 +10°C° 0 mm 8 mps 759 mmHg 53%
    21:00 +10°C° 0 mm 7 mps 759 mmHg 54%
    22:00 +10°C° 0 mm 7 mps 759 mmHg 55%
    23:00 +9°C° 0 mm 7 mps 759 mmHg 56%
    Show more